Regional Weather Roundup
Issued by NWS Cleveland, OH

Home | Current Version | Previous Version | Graphics & Text | Print | Product List | Glossary On
Versions: 1 2 3 4 5 6 7 8 9 10 11 12 13 14 15 16 17 18 19 20 21 22 23 24 25 26 27 28 29 30 31 32 33 34 35 36 37 38 39 40 41 42 43 44 45 46 47 48 49 50
000
ASUS41 KCLE 232300
RWRCLE
OHIO REGIONAL WEATHER ROUNDUP
NATIONAL WEATHER SERVICE WILMINGTON, OH
700 PM EDT WED AUG 23 2017

NOTE: "FAIR" INDICATES FEW OR NO CLOUDS BELOW 12,000 FEET WITH NO
SIGNIFICANT WEATHER AND/OR OBSTRUCTIONS TO VISIBILITY.

OHZ001>008-015>018-024>027-034-035-043-044-240000-
   NORTHWEST OHIO

CITY           SKY/WX    TMP DP  RH WIND       PRES   REMARKS
DEFIANCE       FAIR      73  50  44 NW12G20   29.97
FINDLAY        PTSUNNY   76  51  41 W8        29.96S
TOLEDO EXPRESS FAIR      73  52  47 W10       29.95S
TOLEDO EXEC    FAIR      76  50  40 NW13      29.95S
LIMA           CLOUDY    72  53  51 NW7       29.98S
$$

OHZ009>014-019>023-028>033-038-089-240000-
   NORTHEAST OHIO

CITY           SKY/WX    TMP DP  RH WIND       PRES   REMARKS
CLE-HOPKINS    PTSUNNY   73  54  49 NW9       29.96S
CLE-LAKEFRONT  FAIR      73  55  53 W12       29.94S
CUY CO. ARPT   PTSUNNY   73  55  53 NW14      29.96S
LORAIN-ELYRIA  CLOUDY    70  54  56 NW3       29.96S
ASHTABULA      CLOUDY    68  57  68 W6        29.96S
AKRON-CANTON   PTSUNNY   73  52  47 NW8       29.96S
WOOSTER        NOT AVBL
MANSFIELD      FAIR      70  54  56 W5        29.97F
YOUNGSTOWN     FAIR      69  50  50 W7        29.95S
$$

OHZ042-051>053-060>062-070>072-077>081-240000-
  SOUTHWEST OHIO

CITY           SKY/WX    TMP DP  RH WIND       PRES   REMARKS
CINC-COVINGTON FAIR      77  54  44 N9        29.99S
CINC-LUNKEN    FAIR      77  54  44 N12       29.98S
HAMILTON       FAIR      77  52  41 NW8       29.99F
DAYTON         NOT AVBL
WRIGHT-PAT AFB MOSUNNY   75  50  42 W6        29.98S
DAYTON GENERAL FAIR      75  49  39 NW8       29.99S
WILMINGTON     PTSUNNY   74  54  49 NW7       29.99S
$$

OHZ036-037-039>041-045>050-054>059-063>069-073>076-082>088-240000-
  CENTRAL AND SOUTHEAST OHIO

CITY           SKY/WX    TMP DP  RH WIND       PRES   REMARKS
COLUMBUS       PTSUNNY   74  52  46 NW10      29.97S
OSU AIRPORT    FAIR      71  55  56 NW8       29.97F
BOLTON FIELD   SUNNY     73  54  49 W5        29.99S
RICKENBACK AFB NOT AVBL
NEWARK         FAIR      73  52  47 W6        29.97S
MARION         FAIR      72  51  47 NW9       29.98R
LANCASTER      PTSUNNY   74  54  49 W6        29.98S
ZANESVILLE     FAIR      73  53  49 NW5       29.97S
NEW PHILLY     PTSUNNY   74  55  51 W5        29.97R
$$




USA.gov is the U.S. government's official web portal to all federal, state and local government web resources and services.